CAPE
6 11 4 6 3 4 4 0 0 0 0 0 0 0 0 0 0 0 0 0 0 0 0 0 0 0 0 0 0 0 0 0 0 0 0 0 0 0 0 0 0 0 0 0 0
3 7 8 4 1 3 2 0 0 0 0 0 0 0 0 0 0 0 0 0 0 0 0 0 0 0 0 0 0 0 0 0 0 0 0 0 0 0 0 0 0 0 0 0 0
7 6 4 1 1 2 0 0 0 0 0 0 0 0 0 0 0 0 0 0 0 0 0 0 0 0 0 0 0 0 0 0 0 0 0 0 0 0 0 0 0 0 0 0 0
7 3 3 2 1 4 0 0 0 0 0 0 0 0 0 0 0 0 0 0 0 0 0 0 0 0 0 0 0 0 0 0 0 0 0 0 0 0 0 0 0 0 0 0 0
6 5 3 3 3 3 0 0 0 0 0 0 0 0 0 0 0 0 0 0 0 0 0 0 0 0 0 0 0 0 0 0 0 0 0 0 0 0 0 0 0 0 0 0 0
4 2 3 4 4 2 0 0 0 0 0 0 0 0 0 0 0 0 0 0 0 0 0 0 0 0 0 0 0 0 0 0 0 0 0 0 0 0 0 0 0 0 0 0 0
8 2 2 2 2 0 0 0 0 0 0 0 0 0 0 0 0 0 0 0 0 0 0 0 0 0 0 0 0 0 0 0 0 0 0 0 0 0 0 0 0 0 0 0 0
3 5 3 3 2 0 0 0 0 0 0 0 0 0 0 0 0 0 0 0 0 0 0 0 0 0 0 0 0 0 0 0 0 0 0 0 0 0 0 0 0 0 0 0 0
0 4 8 5 0 0 0 0 0 0 0 0 0 0 0 0 0 0 0 0 0 0 0 0 0 0 0 0 0 0 0 0 0 0 0 0 0 0 0 0 0 0 0 0 0
0 0 0 6 0 0 0 0 0 0 0 0 0 0 0 0 0 0 0 0 0 0 0 0 0 0 0 0 0 0 0 0 0 0 0 0 0 0 0 0 0 0 0 0 0
0 0 0 0 0 0 0 0 0 0 0 0 0 0 0 0 0 0 0 0 0 0 0 0 0 0 0 0 0 0 0 0 0 0 0 0 0 0 0 0 0 0 0 0 0
0 0 0 0 0 0 0 0 0 0 0 0 0 0 0 0 0 0 0 0 0 0 0 0 0 0 0 0 0 0 0 0 0 0 0 0 0 0 0 0 0 0 0 0 0
29 0 0 0 0 3 0 0 0 0 0 0 0 0 0 0 0 0 0 0 0 0 0 0 0 0 0 0 0 0 0 0 0 0 0 0 0 0 0 0 0 0 0 0 0
35 7 0 1 0 1 0 0 5 1 0 0 0 0 0 0 0 0 0 0 0 0 0 0 0 0 0 0 0 0 0 0 0 0 0 0 0 0 0 0 0 0 0 0 0
22 41 19 1 0 4 0 0 36 0 0 0 0 0 0 0 0 0 0 0 0 0 0 0 0 0 0 0 0 0 0 0 0 0 0 0 0 0 0 0 0 0 0 0 0
25 31 52 2 0 0 0 13 0 0 0 0 0 0 0 0 0 0 0 0 0 0 0 0 0 0 0 0 0 0 0 0 0 0 0 0 0 0 0 0 0 0 0 0 0
46 38 13 4 0 0 0 10 0 0 0 0 0 0 0 0 0 0 0 0 0 0 0 0 0 0 0 0 0 0 0 0 0 0 0 0 0 0 0 0 0 0 0 0 0
1 17 6 16 3 0 0 0 0 0 0 0 0 0 0 0 0 0 0 0 0 0 0 0 0 0 0 0 0 0 0 0 0 0 0 0 0 0 0 0 0 0 0 0 0
2 0 0 0 1 2 2 0 0 0 0 0 0 0 0 0 0 0 0 0 0 0 0 0 0 0 0 0 0 0 0 0 0 0 0 0 0 0 0 0 0 0 0 0 0
1 1 0 0 2 1 2 0 0 0 0 0 0 0 0 0 0 0 0 0 0 0 0 0 0 0 0 0 0 0 0 0 0 0 0 0 0 0 0 0 0 0 0 0 0
0 1 2 3 1 6 0 0 0 0 4 0 0 0 0 0 0 0 0 0 0 0 0 0 0 0 0 0 0 0 0 0 0 0 0 0 0 0 0 0 0 0 0 0 0
0 0 0 1 0 0 0 0 0 0 9 2 1 0 0 0 0 0 0 0 0 0 0 0 0 0 0 0 0 0 0 0 0 0 0 0 0 0 0 0 0 0 0 0 0
2 1 2 0 0 0 1 1 0 1 7 0 0 3 1 0 0 0 0 0 0 0 0 0 0 0 0 0 0 0 0 0 0 0 0 0 0 0 0 0 0 0 0 0 0
0 0 2 8 4 0 0 2 4 2 4 11 1 0 0 1 0 0 0 0 0 0 0 0 0 0 0 0 0 0 0 0 0 0 0 0 0 0 0 0 0 0 0 0 0
0 0 0 0 1 0 0 1 0 0 1 1 0 1 0 1 1 0 1 0 0 0 0 0 0 0 0 0 0 0 0 0 0 0 0 0 0 0 0 0 0 0 0 0 0
0 0 0 0 0 0 1 0 1 1 1 2 1 0 0 0 0 0 1 1 0 0 1 0 0 0 0 0 0 0 0 0 0 0 0 0 0 0 0 0 0 0 0 0 0
0 0 0 0 0 0 0 0 0 3 0 0 0 0 3 0 0 0 0 0 0 0 1 1 0 0 0 0 0 0 0 0 0 0 0 0 0 0 0 0 0 0 0 0 0
CIN
-2 -1 0 0 0 0 0 0 0 0 0 0 0 0 0 0 0 0 0 0 0 0 0 0 0 0 0 0 0 0 0 0 0 0 0 0 0 0 0 0 0 0 0 0 0
-3 -1 0 0 0 0 0 0 0 0 0 0 0 0 0 0 0 0 0 0 0 0 0 0 0 0 0 0 0 0 0 0 0 0 0 0 0 0 0 0 0 0 0 0 0
-3 -1 -1 -1 -1 0 0 0 0 0 0 0 0 0 0 0 0 0 0 0 0 0 0 0 0 0 0 0 0 0 0 0 0 0 0 0 0 0 0 0 0 0 0 0 0
-5 -1 0 -1 -1 0 0 0 0 0 0 0 0 0 0 0 0 0 0 0 0 0 0 0 0 0 0 0 0 0 0 0 0 0 0 0 0 0 0 0 0 0 0 0 0
-6 -3 -2 -1 0 0 0 0 0 0 0 0 0 0 0 0 0 0 0 0 0 0 0 0 0 0 0 0 0 0 0 0 0 0 0 0 0 0 0 0 0 0 0 0 0
-6 -3 -1 -1 -1 -1 0 0 0 0 0 0 0 0 0 0 0 0 0 0 0 0 0 0 0 0 0 0 0 0 0 0 0 0 0 0 0 0 0 0 0 0 0 0 0
-5 -4 -2 -1 -1 -1 0 0 0 0 0 0 0 0 0 0 0 0 0 0 0 0 0 0 0 0 0 0 0 0 0 0 0 0 0 0 0 0 0 0 0 0 0 0 0
-7 -6 -2 -1 -2 0 0 0 0 0 0 0 0 0 0 0 0 0 0 0 0 0 0 0 0 0 0 0 0 0 0 0 0 0 0 0 0 0 0 0 0 0 0 0 0
0 -7 -5 -3 0 0 0 0 0 0 0 0 0 0 0 0 0 0 0 0 0 0 0 0 0 0 0 0 0 0 0 0 0 0 0 0 0 0 0 0 0 0 0 0 0
0 -1 -2 -2 0 0 0 0 0 0 0 0 0 0 0 0 0 0 0 0 0 0 0 0 0 0 0 0 0 0 0 0 0 0 0 0 0 0 0 0 0 0 0 0 0
0 0 0 0 0 0 0 0 0 0 0 0 0 0 0 0 0 0 0 0 0 0 0 0 0 0 0 0 0 0 0 0 0 0 0 0 0 0 0 0 0 0 0 0 0
-10 0 0 0 -1 0 0 0 0 0 0 0 0 0 0 0 0 0 0 0 0 0 0 0 0 0 0 0 0 0 0 0 0 0 0 0 0 0 0 0 0 0 0 0 0
-23 0 0 0 0 -1 0 0 0 0 0 0 0 0 0 0 0 0 0 0 0 0 0 0 0 0 0 0 0 0 0 0 0 0 0 0 0 0 0 0 0 0 0 0 0
-8 -18 0 -39 -2 -1 0 0 -148 -42 0 0 0 0 0 0 0 0 0 0 0 0 0 0 0 0 0 0 0 0 0 0 0 0 0 0 0 0 0 0 0 0 0 0 0
-1 -10 -4 -1 0 0 0 0 -111 0 0 0 0 0 0 0 0 0 0 0 0 0 0 0 0 0 0 0 0 0 0 0 0 0 0 0 0 0 0 0 0 0 0 0 0
-2 -3 -1 -2 0 0 0 -62 -7 0 0 0 0 0 0 0 0 0 0 0 0 0 0 0 0 0 0 0 0 0 0 0 0 0 0 0 0 0 0 0 0 0 0 0 0
0 0 -6 -1 0 0 0 -6 0 0 0 0 0 0 0 0 0 0 0 0 0 0 0 0 0 0 0 0 0 0 0 0 0 0 0 0 0 0 0 0 0 0 0 0 0
-4 -3 -1 -8 -25 0 0 -1 0 0 0 0 0 0 0 0 0 0 0 0 0 0 0 0 0 0 0 0 0 0 0 0 0 0 0 0 0 0 0 0 0 0 0 0 0
0 0 0 0 -26 -13 0 0 0 0 0 0 0 0 0 0 0 0 0 0 0 0 0 0 0 0 0 0 0 0 0 0 0 0 0 0 0 0 0 0 0 0 0 0 0
0 0 0 0 -1 0 0 0 0 0 0 0 0 0 0 0 0 0 0 0 0 0 0 0 0 0 0 0 0 0 0 0 0 0 0 0 0 0 0 0 0 0 0 0 0
0 -3 0 -16 0 0 0 0 0 0 -21 0 0 0 0 0 0 0 0 0 0 0 0 0 0 0 0 0 0 0 0 0 0 0 0 0 0 0 0 0 0 0 0 0 0
0 0 0 0 0 0 0 0 -6 0 -21 -22 -14 0 0 0 0 0 0 0 0 0 0 0 0 0 0 0 0 0 0 0 0 0 0 0 0 0 0 0 0 0 0 0 0
0 0 -7 -1 0 0 0 0 0 -1 -11 -1 0 -36 -62 0 0 0 0 0 0 0 0 0 0 0 0 0 0 0 0 0 0 0 0 0 0 0 0 0 0 0 0 0 0
0 0 -1 0 0 0 0 0 0 -1 -1 0 0 0 -1 -1 0 0 0 0 0 0 0 0 0 0 0 0 0 0 0 0 0 0 0 0 0 0 0 0 0 0 0 0 0
0 0 0 0 0 0 0 0 0 0 -2 0 -1 0 0 0 0 0 0 0 0 0 0 0 0 0 0 0 0 0 0 0 0 0 0 0 0 0 0 0 0 0 0 0 0
0 0 0 0 -1 0 -1 0 0 0 0 0 0 0 -5 0 0 0 0 0 -1 0 -2 -2 0 0 0 0 0 0 0 0 0 0 0 0 0 0 0 0 0 0 0 0 0
-1 0 0 0 0 0 0 0 0 -2 -1 0 0 0 0 -1 -1 0 0 0 0 0 0 0 0 0 0 0 0 0 0 0 0 0 0 0 0 0 0 0 0 0 0 0 0
Wind_Speed
23 24 22 21 18 20 19 18 17 21 22 21 20 19 19 20 21 20 23 23 20 18 17 17 16 17 16 18 18 19 20 19 17 12 15 10 8 13 14 10 10 10 10 12 12
26 26 24 24 20 21 21 23 20 20 22 21 20 19 19 20 20 24 27 22 20 16 17 18 18 17 18 20 20 22 23 22 19 17 16 9 12 8 13 10 8 8 9 9 11
27 28 25 26 23 20 21 21 21 20 21 22 21 20 19 19 17 21 19 20 17 18 19 15 16 18 20 20 22 22 26 23 21 18 16 8 14 9 9 7 6 8 7 7 9
27 29 26 25 24 23 22 21 21 20 20 21 21 20 20 17 14 18 18 17 17 15 15 16 17 19 21 23 22 24 24 22 21 18 15 13 14 16 8 9 17 5 4 6 8
27 27 26 26 24 24 22 22 21 21 21 22 21 20 18 18 20 16 15 16 15 15 19 17 20 19 22 21 21 24 23 22 22 20 19 18 19 21 21 15 19 15 4 6 9
25 26 25 25 22 23 23 23 22 22 21 21 21 20 21 22 18 15 13 15 18 17 18 18 20 18 21 21 23 22 21 21 23 24 24 23 22 20 19 21 11 12 5 3 7
22 22 24 23 21 22 23 23 22 22 22 22 21 22 24 25 19 16 14 16 19 18 19 18 15 19 18 21 20 20 23 24 24 23 25 22 30 26 22 20 18 11 11 7 6
24 21 22 21 20 19 22 22 21 22 22 22 20 22 26 23 20 18 17 15 15 17 18 16 15 16 20 16 20 23 23 28 25 23 23 21 31 22 21 19 17 15 11 11 6
25 22 20 19 18 18 18 19 20 21 22 22 22 23 28 21 23 21 18 18 15 17 15 15 16 20 20 22 26 25 30 29 30 23 23 22 29 23 19 19 21 18 18 16 16
25 24 22 21 17 15 16 16 18 19 21 20 22 26 28 27 23 21 18 16 19 15 17 19 22 25 25 25 35 30 29 28 29 25 25 27 33 28 25 24 23 22 23 24 25
26 25 23 20 19 17 15 14 23 28 27 30 28 29 23 23 20 23 20 17 19 20 22 22 26 29 29 25 28 26 28 29 27 25 27 30 35 35 32 31 31 28 29 33 36
28 26 24 22 20 19 18 26 25 22 33 33 28 30 25 22 26 25 21 24 24 27 22 25 31 26 24 24 26 28 30 30 28 26 27 32 39 37 35 33 31 30 31 36 39
32 28 25 23 17 20 26 23 20 20 28 31 33 30 28 26 28 29 24 25 28 28 28 31 27 25 24 26 28 28 31 29 30 27 27 34 42 35 31 31 33 34 36 39 42
25 30 25 21 23 23 31 23 18 19 35 36 34 36 28 26 34 24 25 26 29 33 28 33 29 25 27 30 25 33 27 27 29 29 35 26 43 33 30 32 32 34 34 35 36
23 24 26 24 20 23 23 19 17 19 42 32 32 23 28 30 26 30 24 27 32 30 29 34 29 30 31 31 25 31 22 24 26 29 32 32 36 34 25 27 29 28 30 29 29
27 28 27 26 22 22 13 13 16 27 43 32 27 32 29 33 29 25 28 25 25 29 31 32 27 29 33 27 25 19 22 23 26 29 41 33 32 42 31 28 24 19 18 23 25
28 27 29 24 26 15 14 17 26 39 25 30 31 30 33 33 31 28 31 32 35 36 38 35 34 30 25 27 25 26 25 33 36 36 41 29 31 42 27 25 25 28 27 25 23
20 27 26 24 19 19 18 24 32 35 31 21 25 25 34 29 34 31 32 38 37 35 35 40 44 35 30 31 31 29 29 35 42 41 40 30 39 37 27 30 29 27 26 25 23
22 21 25 19 24 23 25 33 38 31 31 23 19 27 33 30 29 33 38 41 38 36 39 36 41 30 28 27 24 31 37 30 35 34 40 37 41 40 33 27 24 25 25 26 25
20 22 21 24 21 26 31 35 33 25 22 25 29 26 31 31 30 31 34 39 39 37 33 32 35 32 29 25 27 30 25 35 34 44 47 44 43 39 27 25 25 26 27 27 26
19 22 22 17 19 27 37 34 31 27 24 27 28 27 29 30 30 31 35 34 35 35 33 30 35 33 29 35 35 31 34 31 30 36 45 48 45 31 31 28 26 25 23 23 24
19 25 19 19 25 28 33 29 32 31 25 28 26 26 28 26 30 30 32 32 27 30 38 36 34 39 37 30 32 34 37 35 41 42 42 44 53 33 31 25 23 21 21 23 23
27 24 20 18 30 29 26 29 28 30 31 32 33 28 26 29 32 32 31 28 24 23 27 27 37 42 42 39 35 39 37 35 36 35 43 43 54 31 26 24 22 21 22 23 23
24 31 25 24 26 24 26 26 29 24 25 24 24 23 29 33 31 32 31 28 25 24 24 22 31 38 45 40 34 39 38 35 34 40 41 41 41 31 27 25 25 24 25 25 23
26 31 27 33 32 30 24 25 25 28 29 26 29 26 24 29 28 32 31 29 27 25 25 26 37 38 41 36 31 34 37 35 37 38 38 40 42 37 29 26 25 25 24 23 23
29 30 28 31 30 30 31 36 27 27 24 26 24 25 24 26 25 23 22 24 26 26 25 26 33 34 39 34 35 42 39 35 37 38 41 47 53 31 26 26 28 28 28 26 24
24 23 26 31 31 35 36 34 36 29 26 24 24 23 25 25 19 17 19 19 19 21 23 21 24 24 32 26 27 37 34 36 39 38 37 42 41 29 29 29 30 30 26 25 24
Wind_Direction
247 248 249 251 253 252 251 252 252 249 250 250 252 258 259 256 253 260 254 248 256 259 252 249 248 246 248 246 249 247 250 252 257 267 268 286 304 289 295 23 72 86 43 347 87
244 245 247 248 250 251 249 248 251 251 249 250 254 258 258 259 261 253 237 251 257 257 255 246 244 245 246 248 250 247 248 251 258 265 271 288 288 321 307 349 52 60 16 15 93
243 243 245 244 247 249 248 249 249 250 250 250 253 260 262 263 275 262 259 253 263 256 255 256 252 250 248 251 250 251 249 253 259 268 272 286 289 322 334 353 92 118 99 93 106
243 242 244 244 246 247 248 248 247 250 253 253 255 260 261 266 270 270 262 258 262 267 261 253 252 250 250 248 253 254 255 256 260 270 277 279 291 296 323 334 320 113 46 117 130
242 243 243 243 245 246 248 248 249 249 251 254 257 259 262 263 261 278 270 260 263 265 254 254 248 252 251 253 256 256 260 259 261 267 275 282 285 286 292 306 306 327 7 147 154
242 243 242 243 244 245 247 249 250 250 251 254 257 259 257 256 269 273 276 262 258 258 257 256 254 257 257 257 256 262 265 265 265 267 273 277 284 294 299 301 315 317 335 167 170
241 241 241 242 243 246 247 248 251 252 253 254 257 256 255 254 268 265 271 264 256 256 256 260 269 257 260 258 264 267 262 267 268 272 274 282 276 282 294 303 305 308 308 299 202
242 239 239 240 240 244 248 250 252 254 255 255 257 256 256 259 259 261 260 267 264 262 261 268 268 265 262 266 266 264 267 262 272 275 279 282 275 292 299 300 298 302 304 298 269
240 239 238 239 238 240 246 251 254 256 257 257 256 254 255 260 253 255 257 255 262 262 266 267 266 262 260 257 258 264 260 264 270 278 281 278 281 293 300 302 302 300 296 296 292
239 238 237 238 233 235 242 249 255 258 257 257 258 253 256 252 252 250 258 253 256 257 258 259 258 254 255 252 251 258 263 268 270 279 277 278 276 283 292 296 297 299 294 288 285
238 237 235 232 230 227 231 246 247 250 249 245 252 250 261 254 255 249 250 251 254 253 252 256 253 250 252 258 264 266 266 268 276 281 280 279 278 280 284 289 289 291 287 278 269
238 234 233 230 229 226 234 245 247 262 250 250 257 251 258 257 249 247 245 246 249 248 250 255 255 257 259 262 264 265 266 269 278 283 283 282 278 281 284 286 288 289 287 278 269
236 229 225 224 218 230 236 245 257 264 257 252 249 252 252 251 251 243 241 247 248 248 248 251 262 256 259 261 261 265 266 272 275 284 287 286 278 283 289 290 288 285 283 277 269
224 220 217 212 228 233 239 241 262 267 254 251 247 250 248 251 250 251 242 248 251 247 250 256 258 258 256 258 261 262 270 273 275 279 276 291 275 284 291 291 291 287 285 285 283
225 199 204 204 226 228 245 232 256 256 248 253 245 256 241 242 248 245 246 250 246 248 249 253 254 253 256 259 261 267 273 274 277 278 281 281 281 281 296 296 297 297 293 294 296
229 198 194 223 234 234 223 236 244 242 249 251 245 238 234 240 247 246 242 252 253 250 255 255 262 259 258 263 260 264 271 278 279 279 273 276 279 277 289 294 301 309 314 308 306
233 215 198 218 229 202 195 223 235 241 256 251 247 239 233 239 241 243 237 238 241 244 247 252 255 259 262 258 261 260 262 268 270 270 271 281 279 277 288 290 294 295 296 303 312
238 215 214 225 209 189 199 224 243 247 243 263 248 236 239 237 242 242 238 240 244 247 251 248 253 252 256 258 257 257 259 263 267 270 274 279 275 280 289 290 293 295 297 300 305
242 234 218 235 200 196 210 232 242 248 240 247 247 238 241 243 247 242 242 242 242 242 248 251 255 261 257 258 252 258 257 264 272 277 275 276 278 282 285 292 298 298 299 302 303
234 227 231 230 199 205 219 237 243 251 248 238 244 244 241 238 244 240 242 247 247 242 251 256 259 261 258 262 262 259 260 264 266 268 270 275 277 277 288 286 295 301 301 301 302
239 230 234 236 219 209 230 239 243 248 249 243 246 247 251 245 243 246 250 254 244 244 245 253 257 263 257 252 251 256 258 265 269 267 270 274 277 286 283 289 292 299 304 307 307
246 234 244 241 228 232 233 237 241 242 251 248 254 254 251 245 244 245 247 252 254 243 243 248 259 256 258 266 262 262 258 257 263 268 270 275 275 286 287 289 294 300 305 309 312
240 243 250 241 232 234 240 244 247 246 247 253 253 255 258 251 251 248 254 259 259 249 245 241 252 256 262 264 265 260 260 261 264 273 269 272 274 287 284 286 292 297 304 306 309
247 238 246 244 244 239 238 242 241 252 247 253 256 258 256 253 255 253 252 258 257 256 257 245 253 252 255 266 263 260 261 259 262 265 268 267 275 276 276 280 287 292 297 301 304
249 244 246 241 240 242 246 248 242 247 251 256 258 256 252 254 255 254 253 253 255 258 258 256 259 259 263 264 270 265 263 260 256 257 263 265 272 273 271 274 281 291 297 299 301
246 246 249 249 244 243 245 244 247 248 249 250 254 255 255 258 255 254 255 255 256 255 254 261 264 262 261 262 265 266 267 266 265 265 265 271 273 284 274 276 278 285 289 291 295
255 259 254 251 247 244 246 247 245 249 252 255 256 260 255 256 264 265 266 267 265 260 255 257 261 264 267 264 262 268 258 263 268 268 269 268 274 283 279 273 276 282 286 288 292